TimeCDT,TemperatureF,Dew PointF,Humidity,Sea Level PressureIn,VisibilityMPH,Wind Direction,Wind SpeedMPH,Gust SpeedMPH,PrecipitationIn,Events,Conditions,WindDirDegrees,DateUTC
1:53 AM,66.9,61.0,81,29.80,10.0,South,9.2,-,N/A,,Clear,190,2012-10-23 06:53:00
2:53 AM,64.9,61.0,87,29.80,9.0,SSW,9.2,-,N/A,,Clear,200,2012-10-23 07:53:00
3:53 AM,64.0,57.9,80,29.79,10.0,SW,11.5,-,N/A,,Clear,230,2012-10-23 08:53:00
4:53 AM,62.1,54.0,75,29.79,10.0,SSW,8.1,-,N/A,,Clear,210,2012-10-23 09:53:00
5:53 AM,62.1,57.0,84,29.80,10.0,South,9.2,-,N/A,,Clear,170,2012-10-23 10:53:00
6:53 AM,60.1,55.9,86,29.83,9.0,South,9.2,-,N/A,,Clear,170,2012-10-23 11:53:00
7:53 AM,63.0,55.0,75,29.84,10.0,South,10.4,-,N/A,,Clear,170,2012-10-23 12:53:00
8:53 AM,63.0,55.0,75,29.85,10.0,South,9.2,-,N/A,,Clear,180,2012-10-23 13:53:00
9:53 AM,69.1,57.9,68,29.87,10.0,SE,3.5,-,N/A,,Clear,130,2012-10-23 14:53:00
10:53 AM,73.9,59.0,59,29.87,10.0,SSE,8.1,-,N/A,,Clear,150,2012-10-23 15:53:00
12:53 PM,84.9,39.9,20,29.85,10.0,Calm,Calm,-,N/A,,Clear,0,2012-10-23 17:53:00
1:53 PM,88.0,39.0,18,29.81,10.0,Variable,3.5,-,N/A,,Clear,0,2012-10-23 18:53:00
3:53 PM,89.1,36.0,15,29.76,10.0,East,5.8,-,N/A,,Clear,100,2012-10-23 20:53:00
4:53 PM,90.0,36.0,15,29.75,10.0,Calm,Calm,-,N/A,,Clear,0,2012-10-23 21:53:00
5:53 PM,88.0,50.0,27,29.75,10.0,SE,10.4,-,N/A,,Clear,140,2012-10-23 22:53:00
6:53 PM,84.0,55.9,38,29.77,10.0,SE,13.8,-,N/A,,Clear,130,2012-10-23 23:53:00
7:53 PM,80.1,57.9,47,29.78,10.0,SE,12.7,23.0,N/A,,Clear,140,2012-10-24 00:53:00
8:53 PM,77.0,61.0,58,29.80,10.0,SSE,13.8,24.2,N/A,,Clear,150,2012-10-24 01:53:00
9:53 PM,75.0,62.1,64,29.81,10.0,SSE,15.0,-,N/A,,Clear,160,2012-10-24 02:53:00
10:53 PM,73.9,63.0,68,29.82,10.0,SSE,16.1,25.3,N/A,,Clear,160,2012-10-24 03:53:00
11:53 PM,73.0,62.1,68,29.80,10.0,SSE,17.3,25.3,N/A,,Clear,150,2012-10-24 04:53:00